Home > Weather > Vatican City > Past weeks

Flag for Vatican City State Weather for the Past 2 Weeks in Vatican City, Vatican City State

Now
50 °F

Clear.


Feels Like: 47 °F
Forecast: 46 / 56 °F
Wind: 7 mph from Southeast

Location: Rome / Ciampino

Current Time: Feb 6, 2016 at 10:19:46 PM

Latest Report: Feb 6, 2016 at 9:50 PM


Visibility: 10 mi

Pressure: 30.33 "Hg

Humidity: 76%

Dew point: 43 °F

Location of Vatican CityLocation

Historic Weather in Vatican City — Graph

°F

Vatican City Temperature Yesterday

Maximum temperature yesterday: 57 °F (at 2:50 PM)
Minimum temperature yesterday: 34 °F (at 3:20 AM)
Average temperature yesterday: 45 °F

High & Low Weather Summary for the Past Weeks

 TemperatureHumidityPressure
High64 °F (Feb 2, 1:50 PM)100% (Jan 27, 2:50 AM)30.57 "Hg (Jan 27, 2:50 AM)
Low34 °F (Feb 5, 3:20 AM)28% (Feb 4, 3:50 PM)29.92 "Hg (Feb 3, 11:20 PM)
Average50 °F78%30.36 "Hg
* Reported Jan 22 8:20 PM — Feb 6 8:50 PM, Vatican City, Weather by CustomWeather, © 2016

Note: Actual official high and low records may vary slightly from our data, if they occured in-between our weather recording intervals... More about our weather records

Advertising

Vatican City Weather History for the Previous 24 Hours

 ConditionsComfort  
Time TempWeatherWind HumidityBarometerVisibility
8:50 PM
Sat, Feb 6
48 °FClear.6 mph82%30.33 "Hg10 mi
8:20 PM48 °FClear.6 mph82%30.36 "Hg10 mi
7:50 PM50 °FClear.6 mph76%30.36 "Hg10 mi
7:20 PM48 °FClear.6 mph82%30.36 "Hg10 mi
6:50 PM50 °FClear.6 mph76%30.36 "Hg10 mi
6:20 PM50 °FClear.6 mph76%30.36 "Hg10 mi
5:50 PM52 °FClear.6 mph72%30.36 "Hg10 mi
5:20 PM54 °FSunny.6 mph67%30.36 "Hg10 mi
4:50 PM55 °FSunny.9 mph63%30.36 "Hg10 mi
4:20 PM57 °FSunny.9 mph55%30.36 "Hg10 mi
3:50 PM57 °FSunny.8 mph55%30.36 "Hg10 mi
3:20 PM57 °FSunny.8 mph55%30.36 "Hg10 mi
2:50 PM57 °FPassing clouds.8 mph55%30.36 "HgN/A
2:20 PM57 °FPassing clouds.7 mph55%30.39 "HgN/A
1:50 PM57 °FPassing clouds.7 mph55%30.39 "HgN/A
1:20 PM57 °FPassing clouds.7 mph51%30.42 "HgN/A
12:50 PM57 °FPassing clouds.8 mph51%30.42 "HgN/A
12:20 PM57 °FPassing clouds.7 mph51%30.42 "HgN/A
11:50 AM55 °FPassing clouds.8 mph55%30.45 "HgN/A
11:20 AM55 °FPassing clouds.7 mph55%30.45 "HgN/A
10:50 AM55 °FPassing clouds.6 mph47%30.45 "HgN/A
10:20 AM55 °FPassing clouds.8 mph41%30.45 "HgN/A
9:50 AM54 °FPassing clouds.7 mph51%30.45 "HgN/A
9:20 AM52 °FPassing clouds.5 mph58%30.45 "HgN/A
8:50 AM46 °FPassing clouds.2 mph82%30.45 "HgN/A
8:20 AM45 °FPassing clouds.3 mph81%30.45 "HgN/A
7:50 AM45 °FPassing clouds.1 mph76%30.45 "HgN/A
7:20 AM43 °FPassing clouds.3 mph76%30.45 "HgN/A
6:50 AM41 °FClear.1 mph70%30.42 "Hg10 mi
6:20 AM43 °FClear.2 mph71%30.42 "Hg10 mi
5:50 AM43 °FClear.2 mph76%30.42 "Hg10 mi
4:50 AM41 °FClear.6 mph81%30.42 "Hg10 mi
4:20 AM48 °FClear.5 mph62%30.42 "Hg10 mi
3:50 AM43 °FClear.2 mph76%30.42 "Hg10 mi
2:50 AM45 °FPassing clouds.3 mph71%30.42 "HgN/A
2:20 AM46 °FClear.7 mph71%30.42 "Hg10 mi
1:20 AM41 °FClear.2 mph66%30.39 "Hg10 mi
12:50 AM43 °FClear.3 mph66%30.39 "Hg10 mi
12:20 AM39 °FPassing clouds.3 mph70%30.39 "HgN/A
11:50 PM
Fri, Feb 5
41 °FClear.1 mph66%30.39 "Hg10 mi
11:20 PM41 °FClear.1 mph66%30.39 "Hg10 mi
10:50 PM45 °FClear.3 mph57%30.39 "Hg10 mi
10:20 PM41 °FPassing clouds.3 mph66%30.39 "HgN/A
Weather by CustomWeather, © 2016

See weather overviewHow to use our weather pages